Simultaneous Nadir Overpasses (SNOs) Predictions

Prediction of SNOs between AQUA and NOAA-19 Satellite Orbit:

Table of predicted SNOs for the next 14.0 days since TLE Epoch: 6/15/2012
Index Date (AQUA) Time (AQUA) AQUA Lat,Lon Date (NOAA-19) Time (NOAA-19) NOAA-19 Lat,Lon Distance(km) Time Diff (sec)
1 06/15/2012 13:49:27 -46.05, 5.09 06/15/2012 13:48:54 -46.03, 5.17 6.28 33
2 06/15/2012 14:36:24 54.72, 176.49 06/15/2012 14:37:16 54.72, 176.49 0.10 52
3 06/17/2012 18:33:21 -47.30, -65.51 06/17/2012 18:33:13 -47.30, -65.48 1.64 8
4 06/17/2012 19:18:15 63.11, 110.75 06/17/2012 19:19:28 63.08, 111.06 16.26 73
5 06/19/2012 23:16:54 -49.76,-135.58 06/19/2012 23:17:11 -49.76,-135.59 0.62 17
6 06/22/2012 03:12:42 46.02, -15.75 06/22/2012 03:11:48 45.97, -15.57 14.68 54
7 06/22/2012 04:00:22 -52.49, 154.56 06/22/2012 04:01:04 -52.48, 154.54 1.37 42
8 06/24/2012 07:56:56 46.01, -86.81 06/24/2012 07:56:29 45.97, -86.74 7.12 27
9 06/24/2012 08:43:46 -55.41, 84.94 06/24/2012 08:44:53 -55.41, 84.93 0.47 67
10 06/26/2012 12:40:49 47.22,-157.41 06/26/2012 12:40:48 47.22,-157.39 1.51 1
11 06/26/2012 13:16:48 -79.45, 134.41 06/26/2012 13:18:01 -78.84, 131.82 87.11 73
12 06/28/2012 16:35:59 -46.01, -36.58 06/28/2012 16:34:55 -45.93, -36.35 19.77 64




NCC Satellite Simultaneous Nadir Overpasses (SNOs) Prediction Service
